Location: Newark
(44.4156°N, 12.1972°E)
Time: 05:53:33
(UTC+00:00)

STARLINK-1100 - Pass Details

Date: 28 January 2020
Orbit: 349 x 351 km, 53.0° (Epoch: 22 February)

Event Time Altitude Azimuth Distance (km) Brightness Sun altitude
Rises 17:28:00 0° 307° (NW) 2,162 7.3 -13.3°
Reaches altitude 10° 17:30:14 10° 321° (NW) 1,317 5.9 -13.7°
Maximum altitude 17:32:43 24° 20° (NNE) 770 4.1 -14.1°
Enters shadow 17:33:05 24° 32° (NNE) 785 4.0 -14.2°
